Content
SEND FEEDBACK

Daily
Averages
Monthly
Summary
Indonesia

BODJOSARI, INDONESIA


Home > Asia > Indonesia
Elevation: 820 feet     Latitude: 06 30S     Longitude: 106 45E

WEATHER
 
SELECT A DAY
Number of Records: 231,525;   Date Range: 9/17/97 - 10/1/14
 
SHARE

PRINT THIS DATA

[ ← Previous Day ]
WEATHER ALMANAC - JANUARY 31, 2013
[ Next Day → ]
[ °C ]   °F
Weather ElementAverageHighLow
Temperature80.9 °F89.6 °F (12:00 pm)76 °F (4:00 am)
Dewpoint75 °F78.8 °F (1:30 pm)73.4 °F (1:00 am)
Humidity82.1 %94 % (12:30 am)62 % (12:00 pm)
Barometer29.31 in29.95 in (9:00 am) (7:00 pm)
Wind Speed5.3 mph13.8 mph (2:30 pm)
Weather ElementAverage
Visibility3.8 mi
Wind DirectionSSW (210.2 °)

Weather ElementTotal
Precipitation---
Cooling Degree Days17.8 (Base 65)
Growing Degree Days32.8 (Base 50)
Averaged from 52 records on January 31, 2013
WEATHER CONDITIONS BREAKOUT
WIND DIRECTION BREAKOUT
WEATHER BY HOUR - JANUARY 31, 2013
[ °C ]   °F
Local TimeTemperatureDewpointHumidityBarometerVisibilityWind DirectionWind SpeedGust SpeedPrecipitationEventsConditions
12:30 AM77.0 °F75.2 °F94 %29.92 in1.9 miWest (270°)4.6 mphThunderstormMostly Cloudy
1:00 AM77.0 °F75.0 °F92 %29.91 in2.0 miWSW (240°)4.6 mphThunderstormThunderstorm
1:00 AM77.0 °F73.4 °F89 %29.92 in1.9 miWest (270°)4.6 mphThunderstormScattered Clouds
1:30 AM77.0 °F73.4 °F89 %29.92 in2.5 miVariable2.3 mphOvercast
2:00 AM77.0 °F73.4 °F89 %29.89 inWNW (290°)2.3 mphOvercast
3:00 AM77.0 °F73.4 °F89 %29.89 in1.6 miWest (260°)4.6 mphMostly Cloudy
3:30 AM77.0 °F73.4 °F89 %29.89 in1.9 miSW (230°)6.9 mphMostly Cloudy
4:00 AM76.0 °F74.0 °F90 %29.89 in2.0 miSW (220°)4.6 mphHaze
4:00 AM77.0 °F73.4 °F89 %29.89 in1.9 miWSW (250°)6.9 mphScattered Clouds
4:30 AM77.0 °F73.4 °F89 %29.89 inWSW (240°)4.6 mphScattered Clouds
5:00 AM77.0 °F73.4 °F89 %WSW (240°)4.6 mphMostly Cloudy
5:30 AM77.0 °F73.4 °F89 %29.89 in3.7 miSouth (170°)3.5 mphMostly Cloudy
6:00 AM77.0 °F73.4 °F89 %29.89 in3.7 miVariable4.6 mphMostly Cloudy
6:30 AM77.0 °F73.4 °F89 %29.92 in3.1 miVariable3.5 mphPartly Cloudy
7:00 AM77.0 °F75.0 °F90 %29.92 in4.0 miSSW (210°)2.3 mphHaze
7:00 AM77.0 °F73.4 °F89 %29.92 in3.1 miVariable4.6 mphPartly Cloudy
7:30 AM78.8 °F73.4 °F83 %29.92 in4.3 miSSW (200°)4.6 mphScattered Clouds
8:00 AM78.8 °F75.2 °F89 %29.92 in3.1 miCalmPartly Cloudy
8:30 AM80.6 °F75.2 °F84 %29.92 in3.1 miSouth (190°)3.5 mphHaze
9:00 AM80.6 °F75.2 °F84 %29.95 in2.5 miWNW (300°)2.3 mphHaze
9:30 AM82.4 °F75.2 °F79 %29.95 in2.5 miWNW (290°)3.5 mphHaze
10:00 AM86.0 °F77.0 °F68 %29.93 in4.0 miWSW (250°)4.6 mphHaze
10:00 AM84.2 °F77.0 °F79 %29.92 in3.1 miWSW (240°)4.6 mphHaze
10:30 AM86.0 °F77.0 °F74 %29.92 in3.7 miWest (280°)6.9 mphPartly Cloudy
11:00 AM86.0 °F75.2 °F70 %29.89 in4.3 miWSW (250°)5.8 mphPartly Cloudy
11:30 AM87.8 °F75.2 °F66 %29.89 in5.0 miNW (320°)6.9 mphPartly Cloudy
12:00 PM89.6 °F75.2 °F62 %29.86 in6.2 miNNW (330°)5.8 mphPartly Cloudy
12:30 PM87.8 °F77.0 °F70 %29.86 in6.2 miNorth (350°)8.1 mphPartly Cloudy
1:00 PM86.0 °F78.0 °F70 %29.86 in6.0 miNW (320°)11.5 mphScattered Clouds
1:00 PM86.0 °F77.0 °F74 %29.86 in6.2 miNNW (340°)10.4 mphPartly Cloudy
1:30 PM87.8 °F78.8 °F75 %29.83 in6.2 miNNW (340°)10.4 mphPartly Cloudy
2:00 PM87.8 °F77.0 °F70 %29.80 in6.2 miNNW (330°)10.4 mphPartly Cloudy
2:30 PM86.0 °F77.0 °F74 %29.80 in6.2 miNW (320°)13.8 mphThunderstormPartly Cloudy
3:00 PM86.0 °F77.0 °F74 %29.80 in5.6 miNNW (330°)9.2 mphThunderstormScattered Clouds
3:30 PM86.0 °F75.2 °F70 %29.80 in5.6 miNW (320°)9.2 mphPartly Cloudy
4:00 PM82.0 °F76.0 °F78 %29.81 in4.0 miSouth (190°)9.2 mphThunderstormLight Thunderstorm
4:30 PM80.6 °F75.2 °F84 %29.80 in4.3 miWest (280°)6.9 mphThunderstormThunderstorm
5:00 PM80.6 °F75.2 °F84 %29.80 in3.1 miWNW (290°)5.8 mphHaze
5:30 PM80.6 °F75.2 °F84 %29.83 in4.3 miWSW (250°)3.5 mphPartly Cloudy
6:00 PM80.6 °F75.2 °F84 %29.86 in3.1 miSW (220°)2.3 mphHaze
6:30 PM80.6 °F75.2 °F84 %29.86 in3.1 miWSW (250°)3.5 mphHaze
7:00 PM80.0 °F76.0 °F84 %29.89 in3.0 miEast (100°)4.6 mphHaze
7:00 PM80.6 °F75.2 °F84 %29.89 in3.1 miEast (100°)4.6 mphHaze
7:30 PM80.6 °F75.2 °F84 %29.89 inVariable4.6 mphMostly Cloudy
8:00 PM80.6 °F75.2 °F84 %29.89 inSSE (150°)4.6 mphHaze
9:00 PM80.6 °F75.2 °F84 %29.89 inCalmRainRain Showers
9:30 PM80.6 °F73.4 °F79 %29.89 in6.2 miSouth (190°)4.6 mphScattered Clouds
10:00 PM80.0 °F76.0 °F82 %29.93 in3.0 miSouth (180°)5.8 mphHaze
10:00 PM80.6 °F75.2 °F84 %29.92 inSouth (180°)5.8 mphHaze
10:30 PM78.8 °F73.4 °F83 %29.92 inSouth (180°)4.6 mphHaze
11:00 PM78.8 °F73.4 °F83 %29.92 inCalmHaze
11:30 PM77.0 °F73.4 °F89 %29.89 inSouth (180°)6.9 mphPartly Cloudy
Hourly data recorded from WIII, located miles away from Bodjosari, Indonesia







STORIES FROM OUR PARTNERS